Time,TemperatureF,DewpointF,PressureIn,WindDirection,WindDirectionDegrees,WindSpeedMPH,WindSpeedGustMPH,Humidity,HourlyPrecipIn,Conditions,Clouds,dailyrainin,SoftwareType,DateUTC
2013-04-22 00:02:00,49.0,35.0,30.11,SW,229,0.0,-999.0,59,-99.99,,,-99.99,,2013-04-22 05:02:00,
2013-04-22 00:12:00,49.0,35.0,30.11,SW,229,0.0,-999.0,59,-99.99,,,-99.99,,2013-04-22 05:12:00,
2013-04-22 00:22:00,48.0,35.0,30.11,NNE,28,0.0,-999.0,61,-99.99,,,-99.99,,2013-04-22 05:22:00,
2013-04-22 00:32:00,48.0,36.0,30.11,NW,307,0.0,-999.0,63,-99.99,,,-99.99,,2013-04-22 05:32:00,
2013-04-22 00:42:00,48.0,36.0,30.11,NW,307,0.0,-999.0,63,-99.99,,,-99.99,,2013-04-22 05:42:00,
2013-04-22 00:52:00,47.0,36.0,30.11,NW,315,0.0,-999.0,65,-99.99,,,-99.99,,2013-04-22 05:52:00,
2013-04-22 01:02:00,46.0,36.0,30.11,NW,315,0.0,-999.0,67,-99.99,,,-99.99,,2013-04-22 06:02:00,
2013-04-22 01:12:00,46.0,36.0,30.11,NW,315,0.0,-999.0,67,-99.99,,,-99.99,,2013-04-22 06:12:00,
2013-04-22 01:21:00,46.0,36.0,30.10,NW,315,0.0,-999.0,68,-99.99,,,-99.99,,2013-04-22 06:21:00,
2013-04-22 01:32:00,45.0,35.0,30.09,NW,315,0.0,-999.0,69,-99.99,,,-99.99,,2013-04-22 06:32:00,
2013-04-22 01:42:00,45.0,35.0,30.09,NW,315,0.0,-999.0,69,-99.99,,,-99.99,,2013-04-22 06:42:00,
2013-04-22 01:51:00,45.0,35.0,30.09,East,82,0.0,-999.0,69,-99.99,,,-99.99,,2013-04-22 06:51:00,
2013-04-22 02:01:00,44.0,35.0,30.09,East,82,0.0,-999.0,70,-99.99,,,-99.99,,2013-04-22 07:01:00,
2013-04-22 02:12:00,44.0,35.0,30.09,East,82,0.0,-999.0,70,-99.99,,,-99.99,,2013-04-22 07:12:00,
2013-04-22 02:21:00,44.0,35.0,30.09,East,82,0.0,-999.0,71,-99.99,,,-99.99,,2013-04-22 07:21:00,
2013-04-22 02:32:00,44.0,36.0,30.08,East,82,0.0,-999.0,72,-99.99,,,-99.99,,2013-04-22 07:32:00,
2013-04-22 02:42:00,44.0,36.0,30.08,East,82,0.0,-999.0,72,-99.99,,,-99.99,,2013-04-22 07:42:00,
2013-04-22 02:52:00,43.0,35.0,30.08,East,82,0.0,-999.0,73,-99.99,,,-99.99,,2013-04-22 07:52:00,
2013-04-22 03:01:00,43.0,35.0,30.08,East,84,0.0,-999.0,73,-99.99,,,-99.99,,2013-04-22 08:01:00,
2013-04-22 03:11:00,43.0,35.0,30.08,East,84,0.0,-999.0,73,-99.99,,,-99.99,,2013-04-22 08:11:00,
2013-04-22 03:22:00,43.0,35.0,30.08,East,83,0.0,-999.0,72,-99.99,,,-99.99,,2013-04-22 08:22:00,
2013-04-22 03:32:00,43.0,34.0,30.08,East,87,0.0,-999.0,71,-99.99,,,-99.99,,2013-04-22 08:32:00,
2013-04-22 03:42:00,43.0,34.0,30.08,East,87,0.0,-999.0,71,-99.99,,,-99.99,,2013-04-22 08:42:00,
2013-04-22 03:53:00,43.0,34.0,30.07,East,90,0.0,-999.0,71,-99.99,,,-99.99,,2013-04-22 08:53:00,
2013-04-22 04:01:00,44.0,34.0,30.07,SSW,195,0.0,-999.0,69,-99.99,,,-99.99,,2013-04-22 09:01:00,
2013-04-22 04:11:00,44.0,34.0,30.07,SSW,195,0.0,-999.0,69,-99.99,,,-99.99,,2013-04-22 09:11:00,
2013-04-22 04:21:00,44.0,34.0,30.06,SW,226,0.0,-999.0,69,-99.99,,,-99.99,,2013-04-22 09:21:00,
2013-04-22 04:33:00,44.0,34.0,30.06,WSW,250,0.0,-999.0,69,-99.99,,,-99.99,,2013-04-22 09:33:00,
2013-04-22 04:42:00,44.0,34.0,30.06,WSW,250,0.0,-999.0,69,-99.99,,,-99.99,,2013-04-22 09:42:00,
2013-04-22 04:52:00,44.0,34.0,30.06,SW,228,0.0,-999.0,69,-99.99,,,-99.99,,2013-04-22 09:52:00,
2013-04-22 05:03:00,44.0,34.0,30.06,WNW,286,0.0,-999.0,69,-99.99,,,-99.99,,2013-04-22 10:03:00,
2013-04-22 05:12:00,44.0,34.0,30.06,WNW,286,0.0,-999.0,69,-99.99,,,-99.99,,2013-04-22 10:12:00,
2013-04-22 05:22:00,44.0,34.0,30.06,NW,313,0.0,-999.0,69,-99.99,,,-99.99,,2013-04-22 10:22:00,
2013-04-22 05:32:00,43.0,34.0,30.05,NNW,327,0.0,-999.0,70,-99.99,,,-99.99,,2013-04-22 10:32:00,
2013-04-22 05:42:00,43.0,34.0,30.05,NNW,327,0.0,-999.0,70,-99.99,,,-99.99,,2013-04-22 10:42:00,
2013-04-22 05:52:00,43.0,34.0,30.05,NNW,331,0.0,-999.0,70,-99.99,,,-99.99,,2013-04-22 10:52:00,
2013-04-22 06:02:00,43.0,34.0,30.05,WSW,252,0.0,-999.0,70,-99.99,,,-99.99,,2013-04-22 11:02:00,
2013-04-22 06:12:00,43.0,34.0,30.05,WSW,250,0.0,-999.0,70,-99.99,,,-99.99,,2013-04-22 11:12:00,
2013-04-22 06:22:00,43.0,34.0,30.05,WSW,250,0.0,-999.0,70,-99.99,,,-99.99,,2013-04-22 11:22:00,
2013-04-22 06:32:00,43.0,34.0,30.05,WSW,258,0.0,-999.0,70,-99.99,,,-99.99,,2013-04-22 11:32:00,
2013-04-22 06:42:00,43.0,34.0,30.05,WSW,258,0.0,-999.0,70,-99.99,,,-99.99,,2013-04-22 11:42:00,
2013-04-22 06:52:00,43.0,34.0,30.05,WSW,258,0.0,-999.0,70,-99.99,,,-99.99,,2013-04-22 11:52:00,
2013-04-22 07:01:00,43.0,34.0,30.05,West,259,0.0,-999.0,70,-99.99,,,-99.99,,2013-04-22 12:01:00,
2013-04-22 07:12:00,44.0,34.0,30.05,West,259,0.0,-999.0,69,-99.99,,,-99.99,,2013-04-22 12:12:00,
2013-04-22 07:21:00,44.0,34.0,30.05,West,259,0.0,-999.0,69,-99.99,,,-99.99,,2013-04-22 12:21:00,
2013-04-22 07:31:00,45.0,35.0,30.06,SW,232,0.0,-999.0,67,-99.99,,,-99.99,,2013-04-22 12:31:00,
2013-04-22 07:42:00,45.0,35.0,30.06,SW,232,0.0,-999.0,67,-99.99,,,-99.99,,2013-04-22 12:42:00,
2013-04-22 07:52:00,46.0,35.0,30.05,SSW,205,0.0,-999.0,66,-99.99,,,-99.99,,2013-04-22 12:52:00,
2013-04-22 08:01:00,47.0,36.0,30.05,SSE,165,0.0,-999.0,65,-99.99,,,-99.99,,2013-04-22 13:01:00,
2013-04-22 08:11:00,47.0,36.0,30.05,SSE,165,0.0,-999.0,65,-99.99,,,-99.99,,2013-04-22 13:11:00,
2013-04-22 08:22:00,48.0,36.0,30.05,WSW,240,0.0,-999.0,63,-99.99,,,-99.99,,2013-04-22 13:22:00,
2013-04-22 08:31:00,48.0,36.0,30.05,SW,235,0.0,-999.0,62,-99.99,,,-99.99,,2013-04-22 13:31:00,
2013-04-22 08:41:00,48.0,36.0,30.05,SW,235,0.0,-999.0,62,-99.99,,,-99.99,,2013-04-22 13:41:00,
2013-04-22 08:53:00,49.0,36.0,30.05,South,171,0.0,-999.0,61,-99.99,,,-99.99,,2013-04-22 13:53:00,
2013-04-22 09:02:00,51.0,38.0,30.05,SSE,157,0.0,-999.0,60,-99.99,,,-99.99,,2013-04-22 14:02:00,
2013-04-22 09:11:00,51.0,37.0,30.05,WSW,242,1.0,-999.0,58,-99.99,,,-99.99,,2013-04-22 14:11:00,
2013-04-22 09:21:00,51.0,37.0,30.05,WSW,242,1.0,-999.0,58,-99.99,,,-99.99,,2013-04-22 14:21:00,
2013-04-22 09:33:00,52.0,37.0,30.05,West,267,1.0,-999.0,57,-99.99,,,-99.99,,2013-04-22 14:33:00,
2013-04-22 09:42:00,52.0,37.0,30.05,West,267,1.0,-999.0,57,-99.99,,,-99.99,,2013-04-22 14:42:00,
2013-04-22 09:51:00,53.0,38.0,30.04,SSE,163,1.0,-999.0,57,-99.99,,,-99.99,,2013-04-22 14:51:00,
2013-04-22 10:01:00,54.0,38.0,30.04,WSW,253,1.0,-999.0,55,-99.99,,,-99.99,,2013-04-22 15:01:00,
2013-04-22 10:11:00,54.0,38.0,30.04,WSW,253,1.0,-999.0,55,-99.99,,,-99.99,,2013-04-22 15:11:00,
2013-04-22 10:22:00,55.0,40.0,30.04,WSW,237,1.0,-999.0,56,-99.99,,,-99.99,,2013-04-22 15:22:00,
2013-04-22 10:33:00,56.0,40.0,30.04,SE,140,1.0,-999.0,55,-99.99,,,-99.99,,2013-04-22 15:33:00,
2013-04-22 10:43:00,56.0,40.0,30.04,SE,140,1.0,-999.0,55,-99.99,,,-99.99,,2013-04-22 15:43:00,
2013-04-22 10:53:00,58.0,40.0,30.03,SSW,202,1.0,-999.0,51,-99.99,,,-99.99,,2013-04-22 15:53:00,
2013-04-22 11:02:00,59.0,40.0,30.03,SW,228,1.0,-999.0,49,-99.99,,,-99.99,,2013-04-22 16:02:00,
2013-04-22 11:12:00,59.0,40.0,30.03,SW,228,1.0,-999.0,49,-99.99,,,-99.99,,2013-04-22 16:12:00,
2013-04-22 11:23:00,60.0,40.0,30.03,WSW,252,2.0,-999.0,47,-99.99,,,-99.99,,2013-04-22 16:23:00,
2013-04-22 11:33:00,61.0,41.0,30.03,South,187,2.0,-999.0,47,-99.99,,,-99.99,,2013-04-22 16:33:00,
2013-04-22 11:42:00,61.0,41.0,30.03,South,187,2.0,-999.0,47,-99.99,,,-99.99,,2013-04-22 16:42:00,
2013-04-22 11:52:00,62.0,42.0,30.03,WSW,240,2.0,-999.0,47,-99.99,,,-99.99,,2013-04-22 16:52:00,
2013-04-22 12:02:00,62.0,41.0,30.03,WSW,248,2.0,-999.0,46,-99.99,,,-99.99,,2013-04-22 17:02:00,
2013-04-22 12:12:00,62.0,41.0,30.03,WSW,248,2.0,-999.0,46,-99.99,,,-99.99,,2013-04-22 17:12:00,
2013-04-22 12:22:00,63.0,42.0,30.02,NW,314,2.0,-999.0,46,-99.99,,,-99.99,,2013-04-22 17:22:00,
2013-04-22 12:32:00,64.0,41.0,30.01,South,186,2.0,-999.0,43,-99.99,,,-99.99,,2013-04-22 17:32:00,
2013-04-22 12:42:00,64.0,41.0,30.01,South,186,2.0,-999.0,43,-99.99,,,-99.99,,2013-04-22 17:42:00,
2013-04-22 12:52:00,65.0,41.0,30.00,NW,319,1.0,-999.0,41,-99.99,,,-99.99,,2013-04-22 17:52:00,
2013-04-22 13:01:00,66.0,41.0,29.99,WNW,302,1.0,-999.0,40,-99.99,,,-99.99,,2013-04-22 18:01:00,
2013-04-22 13:12:00,66.0,41.0,29.99,WNW,302,1.0,-999.0,40,-99.99,,,-99.99,,2013-04-22 18:12:00,
2013-04-22 13:21:00,67.0,41.0,29.98,SW,236,1.0,-999.0,39,-99.99,,,-99.99,,2013-04-22 18:21:00,
2013-04-22 13:32:00,67.0,40.0,29.98,NE,35,2.0,-999.0,37,-99.99,,,-99.99,,2013-04-22 18:32:00,
2013-04-22 13:42:00,67.0,40.0,29.98,NE,35,2.0,-999.0,37,-99.99,,,-99.99,,2013-04-22 18:42:00,
2013-04-22 13:52:00,68.0,41.0,29.97,SE,141,1.0,-999.0,37,-99.99,,,-99.99,,2013-04-22 18:52:00,
2013-04-22 14:01:00,69.0,40.0,29.96,WSW,253,1.0,-999.0,35,-99.99,,,-99.99,,2013-04-22 19:01:00,
2013-04-22 14:12:00,69.0,40.0,29.96,WSW,253,1.0,-999.0,35,-99.99,,,-99.99,,2013-04-22 19:12:00,
2013-04-22 14:21:00,69.0,39.0,29.95,South,177,1.0,-999.0,34,-99.99,,,-99.99,,2013-04-22 19:21:00,
2013-04-22 14:32:00,69.0,40.0,29.94,SE,127,1.0,-999.0,35,-99.99,,,-99.99,,2013-04-22 19:32:00,
2013-04-22 14:42:00,69.0,40.0,29.94,SE,127,1.0,-999.0,35,-99.99,,,-99.99,,2013-04-22 19:42:00,
2013-04-22 14:52:00,70.0,41.0,29.93,NNE,14,1.0,-999.0,35,-99.99,,,-99.99,,2013-04-22 19:52:00,
2013-04-22 15:02:00,70.0,40.0,29.93,ESE,103,1.0,-999.0,34,-99.99,,,-99.99,,2013-04-22 20:02:00,
2013-04-22 15:11:00,70.0,40.0,29.93,ESE,103,1.0,-999.0,34,-99.99,,,-99.99,,2013-04-22 20:11:00,
2013-04-22 15:22:00,70.0,40.0,29.92,WSW,247,1.0,-999.0,34,-99.99,,,-99.99,,2013-04-22 20:22:00,
2013-04-22 15:32:00,69.0,38.0,29.91,ESE,105,1.0,-999.0,32,-99.99,,,-99.99,,2013-04-22 20:32:00,
2013-04-22 15:42:00,69.0,38.0,29.91,ESE,105,1.0,-999.0,32,-99.99,,,-99.99,,2013-04-22 20:42:00,
2013-04-22 15:52:00,69.0,39.0,29.90,SSW,213,1.0,-999.0,33,-99.99,,,-99.99,,2013-04-22 20:52:00,
2013-04-22 16:02:00,70.0,38.0,29.90,West,260,1.0,-999.0,31,-99.99,,,-99.99,,2013-04-22 21:02:00,
2013-04-22 16:11:00,70.0,38.0,29.90,West,260,1.0,-999.0,31,-99.99,,,-99.99,,2013-04-22 21:11:00,
2013-04-22 16:21:00,70.0,39.0,29.89,West,260,1.0,-999.0,32,-99.99,,,-99.99,,2013-04-22 21:21:00,
2013-04-22 16:32:00,70.0,39.0,29.88,WSW,257,1.0,-999.0,32,-99.99,,,-99.99,,2013-04-22 21:32:00,
2013-04-22 16:42:00,70.0,39.0,29.88,WSW,257,1.0,-999.0,32,-99.99,,,-99.99,,2013-04-22 21:42:00,
2013-04-22 16:53:00,70.0,38.0,29.87,North,5,1.0,-999.0,31,-99.99,,,-99.99,,2013-04-22 21:53:00,
2013-04-22 17:02:00,69.0,39.0,29.86,East,92,1.0,-999.0,33,-99.99,,,-99.99,,2013-04-22 22:02:00,
2013-04-22 17:12:00,69.0,39.0,29.86,East,92,1.0,-999.0,33,-99.99,,,-99.99,,2013-04-22 22:12:00,
2013-04-22 17:22:00,70.0,41.0,29.85,North,349,1.0,-999.0,35,-99.99,,,-99.99,,2013-04-22 22:22:00,
2013-04-22 17:33:00,69.0,42.0,29.85,West,268,1.0,-999.0,38,-99.99,,,-99.99,,2013-04-22 22:33:00,
2013-04-22 17:42:00,69.0,42.0,29.85,West,268,1.0,-999.0,38,-99.99,,,-99.99,,2013-04-22 22:42:00,
2013-04-22 17:52:00,69.0,41.0,29.85,NW,323,1.0,-999.0,36,-99.99,,,-99.99,,2013-04-22 22:52:00,
2013-04-22 18:02:00,68.0,40.0,29.85,North,5,1.0,-999.0,36,-99.99,,,-99.99,,2013-04-22 23:02:00,
2013-04-22 18:11:00,68.0,41.0,29.85,NE,48,1.0,-999.0,37,-99.99,,,-99.99,,2013-04-22 23:11:00,
2013-04-22 18:21:00,68.0,41.0,29.85,NE,48,1.0,-999.0,37,-99.99,,,-99.99,,2013-04-22 23:21:00,
2013-04-22 18:32:00,67.0,41.0,29.84,West,259,0.0,-999.0,38,-99.99,,,-99.99,,2013-04-22 23:32:00,
2013-04-22 18:42:00,67.0,41.0,29.84,West,259,0.0,-999.0,38,-99.99,,,-99.99,,2013-04-22 23:42:00,
2013-04-22 18:52:00,66.0,41.0,29.84,SW,223,0.0,-999.0,40,-99.99,,,-99.99,,2013-04-22 23:52:00,
2013-04-22 19:02:00,66.0,42.0,29.84,WSW,257,0.0,-999.0,42,-99.99,,,-99.99,,2013-04-23 00:02:00,
2013-04-22 19:12:00,66.0,42.0,29.84,WSW,257,0.0,-999.0,42,-99.99,,,-99.99,,2013-04-23 00:12:00,
2013-04-22 19:21:00,65.0,42.0,29.83,SW,217,0.0,-999.0,43,-99.99,,,-99.99,,2013-04-23 00:21:00,
2013-04-22 19:31:00,64.0,41.0,29.83,WSW,246,0.0,-999.0,43,-99.99,,,-99.99,,2013-04-23 00:31:00,
2013-04-22 19:42:00,64.0,41.0,29.83,WSW,246,0.0,-999.0,43,-99.99,,,-99.99,,2013-04-23 00:42:00,
2013-04-22 19:52:00,63.0,42.0,29.83,West,259,0.0,-999.0,47,-99.99,,,-99.99,,2013-04-23 00:52:00,
2013-04-22 20:01:00,63.0,44.0,29.83,SW,227,0.0,-999.0,49,-99.99,,,-99.99,,2013-04-23 01:01:00,
2013-04-22 20:11:00,63.0,44.0,29.83,SW,227,0.0,-999.0,49,-99.99,,,-99.99,,2013-04-23 01:11:00,
2013-04-22 20:21:00,62.0,44.0,29.83,SE,132,0.0,-999.0,51,-99.99,,,-99.99,,2013-04-23 01:21:00,
2013-04-22 20:32:00,61.0,44.0,29.83,SE,138,0.0,-999.0,54,-99.99,,,-99.99,,2013-04-23 01:32:00,
2013-04-22 20:42:00,61.0,44.0,29.83,SE,138,0.0,-999.0,54,-99.99,,,-99.99,,2013-04-23 01:42:00,
2013-04-22 20:52:00,60.0,44.0,29.83,SSW,207,0.0,-999.0,56,-99.99,,,-99.99,,2013-04-23 01:52:00,
2013-04-22 21:01:00,60.0,45.0,29.83,NNW,328,0.0,-999.0,58,-99.99,,,-99.99,,2013-04-23 02:01:00,
2013-04-22 21:12:00,60.0,45.0,29.83,NNW,328,0.0,-999.0,58,-99.99,,,-99.99,,2013-04-23 02:12:00,
2013-04-22 21:21:00,59.0,45.0,29.83,West,261,0.0,-999.0,60,-99.99,,,-99.99,,2013-04-23 02:21:00,
2013-04-22 21:32:00,59.0,45.0,29.83,WSW,253,0.0,-999.0,60,-99.99,,,-99.99,,2013-04-23 02:32:00,
2013-04-22 21:42:00,59.0,45.0,29.83,WSW,253,0.0,-999.0,60,-99.99,,,-99.99,,2013-04-23 02:42:00,
2013-04-22 21:52:00,59.0,46.0,29.84,SW,222,0.0,-999.0,61,-99.99,,,-99.99,,2013-04-23 02:52:00,
2013-04-22 22:01:00,59.0,46.0,29.84,WSW,257,0.0,-999.0,62,-99.99,,,-99.99,,2013-04-23 03:01:00,
2013-04-22 22:11:00,59.0,46.0,29.84,WSW,257,0.0,-999.0,62,-99.99,,,-99.99,,2013-04-23 03:11:00,
2013-04-22 22:21:00,59.0,46.0,29.84,West,274,0.0,-999.0,63,-99.99,,,-99.99,,2013-04-23 03:21:00,
2013-04-22 22:33:00,59.0,46.0,29.84,West,269,0.0,-999.0,63,-99.99,,,-99.99,,2013-04-23 03:33:00,
2013-04-22 22:43:00,59.0,46.0,29.84,West,269,0.0,-999.0,63,-99.99,,,-99.99,,2013-04-23 03:43:00,
2013-04-22 22:53:00,59.0,46.0,29.84,SSW,205,0.0,-999.0,63,-99.99,,,-99.99,,2013-04-23 03:53:00,
2013-04-22 23:03:00,59.0,47.0,29.83,SW,223,0.0,-999.0,64,-99.99,,,-99.99,,2013-04-23 04:03:00,
2013-04-22 23:12:00,59.0,47.0,29.83,SW,223,0.0,-999.0,64,-99.99,,,-99.99,,2013-04-23 04:12:00,
2013-04-22 23:23:00,59.0,46.0,29.83,NW,319,0.0,-999.0,63,-99.99,,,-99.99,,2013-04-23 04:23:00,
2013-04-22 23:33:00,59.0,47.0,29.83,WNW,291,0.0,-999.0,64,-99.99,,,-99.99,,2013-04-23 04:33:00,
2013-04-22 23:43:00,59.0,47.0,29.83,WNW,291,0.0,-999.0,64,-99.99,,,-99.99,,2013-04-23 04:43:00,
2013-04-22 23:53:00,59.0,46.0,29.83,West,271,0.0,-999.0,63,-99.99,,,-99.99,,2013-04-23 04:53:00,